This is the latest recevied weather packets stored in our database for station/object AJ7DN. If no packets are shown the sender has not sent any weather packets the latest 10 day(s).
| Time | Temp. | Humidity | Pressure | Rain* | Wind** | Luminosity | Snow |
|---|---|---|---|---|---|---|---|
| 1777563350 | 13.89° C | 75% | 1023.6 hPa | 0 mm | - | 80 W/m² | - |
| 1777563046 | 13.33° C | 76% | 1023.7 hPa | 0 mm | - | 71 W/m² | - |
| 1777562742 | 13.33° C | 76% | 1023.6 hPa | 0 mm | - | 67 W/m² | - |
| 1777562441 | 13.33° C | 76% | 1023.6 hPa | 0 mm | - | 65 W/m² | - |
| 1777562137 | 13.33° C | 77% | 1023.5 hPa | 0 mm | - | 63 W/m² | - |
| 1777561835 | 13.33° C | 77% | 1023.7 hPa | 0 mm | - | 61 W/m² | - |
| 1777561532 | 13.89° C | 76% | 1023.7 hPa | 0 mm | - | 59 W/m² | - |
| 1777561227 | 13.33° C | 72% | 1023.6 hPa | 0 mm | - | 55 W/m² | - |
| 1777560926 | 13.33° C | 74% | 1023.6 hPa | 0 mm | - | 55 W/m² | - |
| 1777560624 | 12.78° C | 74% | 1023.6 hPa | 0 mm | - | 49 W/m² | - |
| 1777560321 | 12.78° C | 75% | 1023.4 hPa | 0 mm | - | 45 W/m² | - |
| 1777560019 | 12.78° C | 76% | 1023.5 hPa | 0 mm | - | 42 W/m² | - |
| 1777559714 | 12.22° C | 78% | 1023.3 hPa | 0 mm | - | 41 W/m² | - |
| 1777559412 | 11.67° C | 78% | 1023.4 hPa | 0 mm | - | 35 W/m² | - |
| 1777559109 | 11.67° C | 79% | 1023.5 hPa | 0 mm | - | 32 W/m² | - |
| 1777558803 | 11.67° C | 80% | 1023.4 hPa | 0 mm | - | 30 W/m² | - |
| 1777558499 | 11.67° C | 80% | 1023.2 hPa | 0 mm | - | 27 W/m² | - |
| 1777558195 | 11.11° C | 83% | 1023.6 hPa | 0 mm | - | 24 W/m² | - |
| 1777557892 | 10.56° C | 83% | 1023.4 hPa | 0 mm | - | 22 W/m² | - |
| 1777557589 | 10.56° C | 84% | 1023.6 hPa | 0 mm | - | 21 W/m² | - |
| 1777557285 | 10.56° C | 84% | 1023.4 hPa | 0 mm | - | 18 W/m² | - |
| 1777556981 | 10.56° C | 84% | 1023.4 hPa | 0 mm | - | 17 W/m² | - |
| 1777556677 | 10° C | 84% | 1023.4 hPa | 0 mm | - | 16 W/m² | - |
| 1777556373 | 10.56° C | 83% | 1023.2 hPa | 0 mm | - | 13 W/m² | - |
| 1777556068 | 10.56° C | 83% | 1023.3 hPa | 0 mm | - | 11 W/m² | - |
* Rain latest hour (hover to see other rain measurements)
** Current wind speed in m/s (hover to see current wind gust speed)